GW5636 Weather Reports


Display with metric or nautical units.
time (UTC)temp
F
wind
direction
speed
MPH
gust
MPH
rain 1hr
in
rain 24hr
in
rain mn
in
humidity
%
barometer
mb
20260506033541 58 324 0.0 0.0 0.00 0.00 0.00 84 1017.4
20260506033038 58 324 0.0 0.0 0.00 0.00 0.00 84 1017.4
20260506032535 58 324 0.0 0.0 0.00 0.00 0.00 84 1017.3
20260506032032 58 324 0.0 0.0 0.00 0.00 0.00 84 1017.1
20260506031530 59 324 0.0 0.0 0.00 0.00 0.00 84 1017.3
20260506031026 59 324 0.0 0.0 0.00 0.00 0.00 83 1017.3
20260506030525 59 324 0.0 0.0 0.00 0.00 0.00 82 1016.8
20260506030022 59 324 0.0 0.0 0.00 0.00 0.00 82 1016.8
20260506025519 59 324 0.0 0.0 0.00 0.00 0.00 81 1017.1
20260506025015 59 324 0.0 0.0 0.00 0.00 0.00 80 1017.2
20260506024512 59 324 0.0 0.0 0.00 0.00 0.00 80 1016.7
20260506024008 60 324 0.0 0.0 0.00 0.00 0.00 80 1017.1
20260506023504 60 324 0.0 0.0 0.00 0.00 0.00 79 1017.2
20260506023001 60 324 0.0 0.0 0.00 0.00 0.00 79 1016.9
20260506022459 60 324 0.0 0.0 0.00 0.00 0.00 78 1016.9
20260506021956 60 324 0.0 0.0 0.00 0.00 0.00 77 1016.9
20260506021454 60 324 0.0 0.0 0.00 0.00 0.00 78 1017.2
20260506020951 60 324 0.0 0.0 0.00 0.00 0.00 78 1017.1
20260506020448 60 324 0.0 0.0 0.00 0.00 0.00 78 1017.1
20260506015945 60 324 0.0 0.0 0.00 0.00 0.00 77 1016.9
20260506015443 60 324 0.0 0.0 0.00 0.00 0.00 77 1016.9
20260506014939 61 324 0.0 0.0 0.00 0.00 0.00 76 1016.9
20260506014437 61 285 0.0 0.0 0.00 0.00 0.00 76 1016.9
20260506013933 61 285 0.0 0.0 0.00 0.00 0.00 76 1017.2
20260506013431 61 285 0.0 1.0 0.00 0.00 0.00 77 1016.9
20260506012927 61 284 0.0 1.0 0.00 0.00 0.00 76 1016.9
20260506012424 61 35 0.0 1.0 0.00 0.00 0.00 76 1016.7
20260506011921 61 221 0.0 0.0 0.00 0.00 0.00 76 1016.9
20260506011418 61 219 0.0 1.0 0.00 0.00 0.00 75 1016.7
20260506010915 61 218 0.0 2.0 0.00 0.00 0.00 75 1016.7
20260506010414 61 202 2.0 3.0 0.00 0.00 0.00 73 1016.6
20260506005910 61 201 0.0 1.0 0.00 0.00 0.00 75 1016.9
20260506005408 61 56 0.0 1.0 0.00 0.00 0.00 75 1016.9
20260506004902 61 219 0.0 0.0 0.00 0.00 0.00 75 1017.1
20260506004401 61 219 0.0 0.0 0.00 0.00 0.00 75 1016.9
20260506003856 61 219 1.0 1.0 0.00 0.00 0.00 74 1016.9
20260506003353 61 237 0.0 0.0 0.00 0.00 0.00 75 1016.9
20260506002849 61 212 0.0 1.0 0.00 0.00 0.00 74 1016.9
20260506002345 61 193 0.0 0.0 0.00 0.00 0.00 75 1016.9
20260506001841 61 194 0.0 0.0 0.00 0.00 0.00 75 1017.1
20260506001338 61 194 0.0 0.0 0.00 0.00 0.00 77 1016.9
20260506000835 61 194 0.0 1.0 0.00 0.00 0.00 76 1016.8
20260506000333 61 198 1.0 2.0 0.00 0.00 0.00 75 1017.2
20260505235830 61 180 2.0 2.0 0.00 0.00 0.00 74 1017.4
20260505235327 61 27 0.0 0.0 0.00 0.00 0.00 75 1017.5
20260505234824 61 27 0.0 1.0 0.00 0.00 0.00 74 1017.2
20260505234322 61 52 1.0 1.0 0.00 0.00 0.00 73 1017.2
20260505233819 61 68 0.0 1.0 0.00 0.00 0.00 74 1017.3
20260505233317 61 69 0.0 1.0 0.00 0.00 0.00 74 1017.3
20260505232813 61 24 0.0 1.0 0.00 0.00 0.00 74 1017.5
20260505232311 61 23 0.0 0.0 0.00 0.00 0.00 75 1017.2
20260505231808 61 23 1.0 1.0 0.00 0.00 0.00 75 1017.2
20260505231306 61 336 1.0 1.0 0.00 0.00 0.00 75 1017.2
20260505230804 62 65 1.0 1.0 0.00 0.00 0.00 74 1017.5
20260505230300 61 268 0.0 0.0 0.00 0.00 0.00 75 1017.4
20260505225757 61 35 0.0 1.0 0.00 0.00 0.00 77 1017.6
20260505225254 60 43 1.0 1.0 0.00 0.00 0.00 75 1017.7
20260505224749 60 15 1.0 2.0 0.00 0.00 0.00 75 1017.6
20260505224247 60 340 0.0 1.0 0.00 0.00 0.00 76 1017.5
20260505223744 60 48 0.0 1.0 0.00 0.00 0.00 77 1017.5
20260505223241 60 352 1.0 2.0 0.00 0.00 0.00 76 1017.5
20260505222737 60 42 0.0 1.0 0.00 0.00 0.00 77 1017.7
20260505222233 61 60 1.0 2.0 0.00 0.00 0.00 75 1017.7
20260505221731 61 6 1.0 1.0 0.00 0.00 0.00 75 1017.7
20260505221227 62 272 0.0 1.0 0.00 0.00 0.00 74 1017.7
20260505220724 61 236 0.0 0.0 0.00 0.00 0.00 73 1017.7
20260505220221 61 244 0.0 0.0 0.00 0.00 0.00 74 1017.8
20260505215719 61 176 0.0 3.0 0.00 0.00 0.00 76 1017.7
20260505215217 60 234 0.0 2.0 0.00 0.00 0.00 76 1017.8
20260505214714 60 257 1.0 1.0 0.00 0.00 0.00 75 1017.7
20260505214212 60 251 2.0 2.0 0.00 0.00 0.00 74 1017.9
20260505213709 61 117 0.0 1.0 0.00 0.00 0.00 75 1017.9
20260505213206 61 51 1.0 3.0 0.00 0.00 0.00 74 1017.9
20260505212702 61 294 0.0 0.0 0.00 0.00 0.00 76 1017.7
20260505212159 61 25 1.0 2.0 0.00 0.00 0.00 74 1017.8
20260505211656 61 264 0.0 1.0 0.00 0.00 0.00 75 1017.9
20260505211154 61 214 0.0 2.0 0.00 0.00 0.00 75 1017.8
20260505210650 60 95 1.0 1.0 0.00 0.00 0.00 75 1017.9
20260505210147 60 114 1.0 2.0 0.00 0.00 0.00 77 1017.8
20260505205644 60 341 0.0 1.0 0.00 0.00 0.00 75 1018.0
20260505205142 60 15 1.0 1.0 0.00 0.00 0.00 75 1017.9
20260505204638 60 287 0.0 1.0 0.00 0.00 0.00 77 1018.0
20260505204137 59 328 0.0 1.0 0.00 0.00 0.00 77 1017.9
20260505203633 59 263 0.0 1.0 0.00 0.00 0.00 77 1017.8
20260505203130 59 236 2.0 3.0 0.00 0.00 0.00 77 1017.8
20260505202626 59 188 0.0 2.0 0.00 0.00 0.00 78 1018.2
20260505202122 59 231 0.0 2.0 0.00 0.00 0.00 79 1018.2
20260505201619 58 276 0.0 1.0 0.00 0.00 0.00 80 1018.0
20260505201117 58 220 1.0 2.0 0.00 0.00 0.00 79 1017.9
20260505200615 59 163 2.0 3.0 0.00 0.00 0.00 78 1018.1
20260505200111 59 228 1.0 1.0 0.00 0.00 0.00 78 1018.0
20260505195607 60 158 3.0 3.0 0.00 0.00 0.00 77 1018.2
20260505195105 60 118 0.0 1.0 0.00 0.00 0.00 77 1018.2
20260505194602 60 199 0.0 1.0 0.00 0.00 0.00 78 1018.1
20260505194058 60 46 1.0 2.0 0.00 0.00 0.00 75 1018.0
20260505193555 60 25 0.0 1.0 0.00 0.00 0.00 77 1018.0
20260505193052 59 269 0.0 1.0 0.00 0.00 0.00 78 1018.1
20260505192551 59 121 0.0 1.0 0.00 0.00 0.00 78 1018.3
20260505192048 58 216 1.0 1.0 0.00 0.00 0.00 78 1018.3
20260505191546 58 359 0.0 1.0 0.00 0.00 0.00 79 1018.2
20260505191044 57 231 0.0 1.0 0.00 0.00 0.00 81 1018.3
20260505190543 57 234 1.0 2.0 0.00 0.00 0.00 79 1018.1
20260505190040 57 186 2.0 2.0 0.00 0.00 0.00 81 1018.1
20260505185537 57 137 0.0 0.0 0.00 0.00 0.00 82 1018.1
20260505185033 57 236 0.0 1.0 0.00 0.00 0.00 82 1018.2
20260505184530 57 33 1.0 2.0 0.00 0.00 0.00 82 1018.3
20260505184027 57 213 1.0 1.0 0.00 0.00 0.00 81 1018.0
20260505183524 57 329 0.0 1.0 0.00 0.00 0.00 81 1018.2
20260505183021 56 131 0.0 1.0 0.00 0.00 0.00 84 1018.3
20260505182517 56 357 1.0 1.0 0.00 0.00 0.00 83 1018.0
20260505182014 56 88 0.0 2.0 0.00 0.00 0.00 84 1018.0
20260505181511 56 167 2.0 2.0 0.00 0.00 0.00 84 1018.1
20260505181008 56 41 2.0 2.0 0.00 0.00 0.00 84 1018.3
20260505180504 56 301 1.0 1.0 0.00 0.00 0.00 83 1018.1
20260505180001 56 359 1.0 2.0 0.00 0.00 0.00 84 1018.2
20260505175457 55 13 1.0 2.0 0.00 0.00 0.00 86 1018.1
20260505174954 55 349 0.0 0.0 0.00 0.00 0.00 89 1018.1
20260505174451 54 8 1.0 2.0 0.00 0.00 0.00 88 1017.9
20260505173947 54 356 1.0 1.0 0.00 0.00 0.00 88 1018.0
20260505173443 54 328 1.0 2.0 0.00 0.00 0.00 89 1018.1
20260505172940 54 49 1.0 2.0 0.00 0.00 0.00 89 1018.2
20260505172439 54 310 0.0 1.0 0.00 0.00 0.00 90 1018.0
20260505171938 54 94 0.0 2.0 0.00 0.00 0.00 90 1017.9
20260505171435 54 80 1.0 2.0 0.00 0.00 0.00 90 1017.9
20260505170932 54 9 1.0 1.0 0.00 0.00 0.00 91 1017.9
20260505170428 53 35 0.0 1.0 0.00 0.00 0.00 91 1017.8
20260505165924 53 353 1.0 1.0 0.00 0.00 0.00 91 1017.7
20260505165420 53 358 0.0 1.0 0.00 0.00 0.00 91 1017.8
20260505164915 53 18 1.0 2.0 0.00 0.00 0.00 92 1017.6
20260505164412 53 357 1.0 2.0 0.00 0.00 0.00 92 1017.7
20260505163910 53 11 0.0 1.0 0.00 0.00 0.00 92 1017.7
20260505163409 53 20 2.0 2.0 0.00 0.00 0.00 92 1017.7
20260505162908 53 13 0.0 1.0 0.00 0.00 0.00 93 1017.8
20260505162403 52 359 1.0 1.0 0.00 0.00 0.00 94 1017.6
20260505161900 52 357 1.0 2.0 0.00 0.00 0.00 94 1017.5
20260505161357 52 44 1.0 2.0 0.00 0.00 0.00 95 1017.7
20260505160854 52 18 0.0 1.0 0.00 0.00 0.00 95 1017.5
20260505160353 52 18 0.0 1.0 0.00 0.00 0.00 96 1017.6
20260505153331 52 5 1.0 2.0 0.00 0.00 0.00 96 1017.7
20260505152828 52 24 0.0 1.0 0.00 0.00 0.00 95 1017.6
20260505152325 52 14 1.0 1.0 0.00 0.00 0.00 95 1017.6
20260505151825 52 14 0.0 1.0 0.00 0.00 0.00 95 1017.4
20260505151322 52 45 0.0 1.0 0.00 0.00 0.00 95 1017.3
20260505150819 52 75 2.0 2.0 0.00 0.00 0.00 96 1017.5
20260505150316 52 74 1.0 1.0 0.00 0.00 0.00 96 1017.3
20260505140241 51 92 0.0 0.0 0.00 0.00 0.00 95 1016.8
20260505130204 51 347 0.0 1.0 0.00 0.00 0.00 92 1016.5
20260505124654 51 344 0.0 1.0 0.00 0.00 0.00 92 1016.6
20260505124151 51 330 0.0 0.0 0.00 0.00 0.00 91 1016.5
20260505123647 51 330 0.0 0.0 0.00 0.00 0.00 91 1016.4
20260505123144 51 330 0.0 0.0 0.00 0.00 0.00 91 1016.5
20260505122640 51 330 0.0 0.0 0.00 0.00 0.00 91 1016.4
20260505122138 51 331 1.0 1.0 0.00 0.00 0.00 91 1016.5
20260505121634 51 330 0.0 0.0 0.00 0.00 0.00 91 1016.4
20260505121131 51 330 0.0 0.0 0.00 0.00 0.00 91 1016.4
20260505120627 51 330 0.0 1.0 0.00 0.00 0.00 91 1016.4
20260505120124 52 330 1.0 1.0 0.00 0.00 0.00 91 1016.3
20260505115623 51 330 1.0 1.0 0.00 0.00 0.00 91 1016.4
20260505115121 52 3 1.0 2.0 0.00 0.00 0.00 91 1016.5
20260505114618 52 5 0.0 1.0 0.00 0.00 0.00 91 1016.3
20260505114114 52 14 0.0 1.0 0.00 0.00 0.00 91 1016.2
20260505113610 52 14 0.0 1.0 0.00 0.00 0.00 91 1016.4
20260505113108 52 14 0.0 1.0 0.00 0.00 0.00 91 1016.2
20260505112604 52 10 1.0 1.0 0.00 0.00 0.00 91 1016.1
20260505112103 52 10 1.0 1.0 0.00 0.00 0.00 91 1016.2
20260505111601 52 2 0.0 1.0 0.00 0.00 0.00 91 1016.2
20260505111057 52 45 0.0 2.0 0.00 0.00 0.00 91 1016.2
20260505110554 52 352 1.0 1.0 0.00 0.00 0.00 91 1016.2
20260505102027 52 45 0.0 1.0 0.00 0.00 0.00 90 1016.0
20260505101525 52 45 0.0 1.0 0.00 0.00 0.00 90 1015.8
20260505101021 52 44 0.0 1.0 0.00 0.00 0.00 90 1015.7
20260505100518 52 45 1.0 1.0 0.00 0.00 0.00 90 1015.9
20260505100015 52 43 0.0 1.0 0.00 0.00 0.00 90 1015.8
20260505095511 52 40 0.0 1.0 0.00 0.00 0.00 90 1015.9
20260505095007 52 40 0.0 1.0 0.00 0.00 0.00 90 1016.1
20260505094504 52 40 0.0 1.0 0.00 0.00 0.00 90 1015.9
20260505094000 52 39 0.0 2.0 0.00 0.00 0.00 89 1015.9
20260505093457 52 23 1.0 1.0 0.00 0.00 0.00 90 1015.9
20260505092954 52 22 1.0 1.0 0.00 0.00 0.00 90 1015.6
20260505092452 52 19 0.0 1.0 0.00 0.00 0.00 90 1015.9
20260505091949 52 13 2.0 3.0 0.00 0.00 0.00 89 1015.6
20260505091447 52 12 1.0 2.0 0.00 0.00 0.00 89 1015.7
20260505090944 52 12 1.0 2.0 0.00 0.00 0.00 89 1015.5
20260505090443 52 10 1.0 2.0 0.00 0.00 0.00 89 1015.4
20260505085940 52 9 2.0 2.0 0.00 0.00 0.00 89 1015.5
20260505085437 52 353 1.0 2.0 0.00 0.00 0.00 89 1015.7
20260505084935 52 5 2.0 2.0 0.00 0.00 0.00 89 1015.6
20260505084434 52 337 0.0 1.0 0.00 0.00 0.00 89 1015.7
20260505083931 52 24 1.0 2.0 0.00 0.00 0.00 89 1015.5
20260505083428 52 20 1.0 3.0 0.00 0.00 0.00 89 1015.5
20260505082924 52 354 1.0 2.0 0.00 0.00 0.00 89 1015.5
20260505082420 52 349 1.0 3.0 0.00 0.00 0.00 89 1015.3
20260505081917 52 63 1.0 1.0 0.00 0.00 0.00 89 1015.4
20260505081414 52 3 1.0 2.0 0.00 0.00 0.00 89 1015.4
20260505080911 52 9 1.0 2.0 0.00 0.00 0.00 89 1015.5
20260505080407 52 8 2.0 2.0 0.00 0.00 0.00 89 1015.4
20260505075902 52 14 3.0 3.0 0.00 0.00 0.00 89 1015.6
20260505075359 52 38 2.0 3.0 0.00 0.00 0.00 88 1015.5
20260505074857 53 10 2.0 3.0 0.00 0.00 0.00 88 1015.2
20260505074354 53 16 2.0 3.0 0.00 0.00 0.00 88 1015.3
20260505073851 53 22 2.0 3.0 0.00 0.00 0.00 88 1015.2
20260505073349 53 14 1.0 3.0 0.00 0.00 0.00 87 1015.3
20260505072846 53 15 1.0 2.0 0.00 0.00 0.00 87 1015.2
20260505072342 53 17 1.0 3.0 0.00 0.00 0.00 87 1015.0
20260505071838 53 353 1.0 2.0 0.00 0.00 0.00 87 1015.0
20260505071334 53 8 1.0 3.0 0.00 0.00 0.00 87 1015.0
20260505070833 53 343 1.0 2.0 0.00 0.00 0.00 87 1014.9
20260505070329 54 346 1.0 4.0 0.00 0.00 0.00 86 1014.7
20260505065824 54 2 2.0 3.0 0.00 0.00 0.00 86 1014.7
20260505065321 54 8 3.0 3.0 0.00 0.00 0.00 85 1014.7
20260505064818 54 30 2.0 4.0 0.00 0.00 0.00 85 1014.7
20260505064315 55 22 2.0 3.0 0.00 0.00 0.00 85 1014.6
20260505063814 55 12 2.0 3.0 0.00 0.00 0.00 84 1014.5
20260505063309 55 22 3.0 4.0 0.00 0.00 0.00 84 1014.6
20260505062806 55 1 2.0 3.0 0.00 0.00 0.00 84 1014.7
20260505062304 55 20 2.0 3.0 0.00 0.00 0.00 83 1014.8
20260505061800 55 23 2.0 3.0 0.00 0.00 0.00 83 1014.6
20260505061258 55 18 2.0 3.0 0.00 0.00 0.00 83 1014.8
20260505060755 55 16 2.0 3.0 0.00 0.00 0.00 82 1014.8
20260505060252 55 359 2.0 3.0 0.00 0.00 0.00 82 1014.5
20260505055747 56 0 2.0 3.0 0.00 0.00 0.00 81 1014.6
20260505055244 56 15 2.0 2.0 0.00 0.00 0.00 80 1014.5
20260505054741 56 14 1.0 3.0 0.00 0.00 0.00 80 1014.5
20260505054239 57 18 2.0 4.0 0.00 0.00 0.00 79 1014.3
20260505053737 57 31 3.0 4.0 0.00 0.00 0.00 78 1014.4
20260505053233 57 27 3.0 3.0 0.00 0.00 0.00 77 1014.2
20260505052731 57 15 3.0 4.0 0.00 0.00 0.00 77 1014.4
20260505052228 58 15 3.0 6.0 0.00 0.00 0.00 77 1014.2
20260505051725 58 15 3.0 4.0 0.00 0.00 0.00 76 1014.4
20260505051223 58 347 2.0 3.0 0.00 0.00 0.00 77 1014.4
20260505050720 59 25 2.0 3.0 0.00 0.00 0.00 77 1014.2
20260505050218 59 35 2.0 3.0 0.00 0.00 0.00 79 1014.2
20260505041648 62 10 1.0 2.0 0.00 0.00 0.00 76 1013.7
20260505041146 62 6 2.0 2.0 0.00 0.00 0.00 76 1013.5
20260505040643 62 25 3.0 3.0 0.00 0.00 0.00 75 1013.5
20260505040140 62 9 3.0 3.0 0.00 0.00 0.00 76 1013.4
20260505035636 63 359 1.0 2.0 0.00 0.00 0.00 76 1013.1
20260505035132 63 356 2.0 2.0 0.00 0.00 0.00 77 1013.2
20260505034629 63 338 0.0 1.0 0.00 0.00 0.00 77 1013.2
20260505034126 64 6 1.0 3.0 0.00 0.00 0.00 76 1013.0